Regional Weather Roundup
Issued by NWS

Home | Current Version | Previous Version | Graphics & Text | Print | Product List | Glossary Off
Versions: 1 2 3 4 5 6 7 8 9 10 11 12 13 14 15 16 17 18 19 20 21 22 23 24 25 26 27 28 29 30 31 32 33 34 35 36 37 38 39 40 41 42 43 44 45 46 47 48 49 50

000
ASUS43 KMKX 180311
RWRWI

WISCONSIN REGIONAL WEATHER ROUNDUP
NATIONAL WEATHER SERVICE MILWAUKEE/SULLIVAN WI
1000 PM CDT TUE OCT 17 2017

NOTE: "FAIR" INDICATES FEW OR NO CLOUDS BELOW 12,000 FEET WITH NO
SIGNIFICANT WEATHER AND/OR OBSTRUCTIONS TO VISIBILITY.

WIZ001-002-006>008-014>016-023>028-180400-
NORTHWEST WISCONSIN

CITY           SKY/WX    TMP DP  RH WIND       PRES   REMARKS
SUPERIOR ARPT  CLEAR     51  41  68 SW3       29.85S
ASHLAND        CLEAR     51  41  68 S6        29.89S
HAYWARD        CLEAR     52  42  69 SW6       29.91F
SIREN          CLEAR     55  42  61 S7        29.89F
CUMBERLAND     CLEAR     48  41  76 S7        29.93S
RICE LAKE      CLEAR     52  44  73 SE5       29.94S
CHETEK         CLEAR     53  45  76 CALM      29.94S
LADYSMITH      CLEAR     56  45  68 S6        29.97S
EAU CLAIRE     CLEAR     55  45  68 S7        29.95S
MENOMONIE      CLEAR     53  46  75 CALM      29.94F
NEW RICHMOND   CLEAR     55  40  58 S7        29.92F
OSCEOLA        CLEAR     55  42  62 S6        29.94S
$$

WIZ003>005-009-010-017-018-180400-
NORTH CENTRAL WISCONSIN

CITY           SKY/WX    TMP DP  RH WIND       PRES   REMARKS
MANITOWISH WTR PTCLDY    51  44  77 S6        29.95S
ARBOR VITAE    CLEAR     54  46  72 S6        29.96S
WOODRUFF       CLEAR     54  46  72 S6        29.96S
RHINELANDER    CLEAR     55  45  68 SW7       29.99S
EAGLE RIVER    CLEAR     54  43  64 S5        29.96F
LAND O LAKES   CLEAR     43  40  91 CALM      29.98S
PHILLIPS       CLEAR     53  44  71 S6        29.96S
TOMAHAWK       CLEAR     46  42  87 CALM      29.98F
MEDFORD        CLEAR     50  43  78 S8        29.98F
MERRILL        CLEAR     41  40  97 CALM      30.00S
$$

WIZ029-030-035-036-043>047-180400-
CENTRAL WISCONSIN

CITY           SKY/WX    TMP DP  RH WIND       PRES   REMARKS
WAUSAU         CLEAR     52  45  77 S7        29.99R
MOSINEE        MOCLDY    50  46  87 S6        30.01S
MARSHFIELD     CLEAR     51  43  74 S7        29.99F
STEVENS POINT  CLEAR     46  45  93 CALM      30.02S
WAUPACA        CLEAR     55  46  73 CALM      30.03R
WAUTOMA        PTCLDY    47  46  97 CALM      30.05R
WISC RAPIDS    CLEAR     52  46  80 SW3       30.02S
CAMP DOUGLAS   PTCLDY    45  43  93 SE7       30.02R
$$

WIZ011>013-019>022-031-037>040-048>050-180400-
NORTHEAST WISCONSIN

CITY           SKY/WX    TMP DP  RH WIND       PRES   REMARKS
ANTIGO         CLEAR     50  44  79 SW7       30.01S
SHAWANO        CLEAR     50  46  86 CALM      30.01S
OCONTO         CLEAR     46  44  93 CALM      30.01S
STURGEON BAY   CLEAR     56  48  74 S9        30.03S
GREEN BAY      CLEAR     50  48  93 S3        30.03R
MANITOWOC      CLEAR     57  46  66 SW7       30.05S
APPLETON       CLEAR     55  43  62 SW9       30.02S
CLINTONVILLE   CLEAR     52  45  76 CALM      30.02S
OSHKOSH        PTCLDY    57  46  66 S10       30.04S
$$

WIZ032>034-041-042-053>061-180400-
SOUTHWEST WISCONSIN

CITY           SKY/WX    TMP DP  RH WIND       PRES   REMARKS
LA CROSSE      CLEAR     61  47  59 S12       29.99S
SPARTA         CLEAR     48  45  87 CALM      30.02S
VIROQUA        CLEAR     57  45  62 S8        30.04R
BOSCOBEL       CLEAR     58  44  60 SW5       30.05S
PRAIRIE DU CHI CLEAR     60  43  52 S5        30.05R
PLATTEVILLE    CLEAR     53  45  72 S8        30.08S
$$

WIZ056-057-062-063-064-067-068-180400-
SOUTH CENTRAL WISCONSIN

CITY           SKY/WX    TMP DP  RH WIND       PRES   REMARKS
REEDSBURG      CLEAR     57  44  61 S7        30.05R
BARABOO/DELLS  CLEAR     58  42  56 S9        30.05S
LONE ROCK      CLEAR     53  45  74 CALM      30.06R
MINERAL POINT  CLEAR     55  43  62 S7        30.08S
MADISON        CLEAR     61  42  49 S9        30.07R
MIDDLETON      CLEAR     59  42  53 SW7       30.08R
WATERTOWN      CLEAR     49  43  79 SE3       30.09R
MONROE         CLEAR     54  41  62 S10       30.10R
JANESVILLE     CLEAR     57  41  54 S8        30.10S
$$

WIZ051-052-058>065-066-070>072-180400-
SOUTHEAST WISCONSIN

CITY           SKY/WX    TMP DP  RH WIND       PRES   REMARKS
MILWAUKEE      PTCLDY    61  42  49 SW15      30.10R
WAUKESHA       NOT AVBL
MILWAUKEE/TIMM CLEAR     57  37  47 SW9       30.10S
RACINE         CLEAR     58  42  55 SW8       30.13R
BURLINGTON     CLEAR     52  43  71 S3        30.11S
KENOSHA        CLEAR     57  41  55 SW9       30.11S
FOND DU LAC    PTCLDY    60  42  51 SW10      30.06S
SHEBOYGAN      CLEAR     53  47  79 S8        30.07R
WEST BEND      CLEAR     55  39  54 SW7       30.08S
JUNEAU         CLEAR     55  42  63 S6        30.09S
$$

LSZ147-162-180400-
LAKE SUPERIOR

STATION/POSITION TIME  TEMP    WIND        PRES    WAVE
                       AIR SEA DIR/SP/G            HT/PER
                 (UTC) (F)     (DEG/KT/KT) (MB)    (FT/S)
W MID LAKE BUOY  0250   56 53              1011.2F   1
DEVILS ISLAND    0300   62     190/  9/ 12 1011.1F
SAXON HARBOR     0240   54     200/  6/  9 1011.9S
$$

LMZ867-665-643>646-180400-
LAKE MICHIGAN

STATION/POSITION TIME  TEMP    WIND        PRES    WAVE
                       AIR SEA DIR/SP/G            HT/PER
                 (UTC) (F)     (DEG/KT/KT) (MB)    (FT/S)
S GREEN BAY BUOY 0200   60 58  180/ 10/ 12 1016.0
N MID LAKE BUOY  0250   60 59  180/ 12/ 16 1017.1S   4/ 5
NORTHPORT PIER   0240   57     170/  3/  8 1016.3S
KEWAUNEE LAKESHO 0242   57     190/  5/  6 1016.1S
SHEBOYGAN LAKESH 0300   62     200/ 11/ 12 1017.8R
PORT WASHINGTON  0240   56      CALM  /  1 1019.6R
MILWAUKEE LAKESH 0250   62     220/ 12/ 16   N/A
S MID LAKE BUOY  0250   63 61  210/ 16/ 19 1020.1R   3/ 5
KENOSHA   LAKESH 0300   59     200/  7/ 10 1019.6
$$

TC  - TEMPERATURE IN CELSIUS
VSB - VISIBILITY IN STATUTE MILES
WCI - WIND CHILL INDEX
HX  - HEAT INDEX




USA.gov is the U.S. government's official web portal to all federal, state and local government web resources and services.